Location: Pitton
(51.0667°N, 1.7000°W)
Time: 15:22:10
(UTC+00:00)

ASTEX 1 - Pass Details

Date: 17 September 2019
Orbit: 720 x 744 km, 92.7° (Epoch: 21 October)

Event Time Altitude Azimuth Distance (km) Brightness Sun altitude
Rises 19:42:43 0° 5° (N) 3,151 6.9 -13.9°
Reaches altitude 10° 19:45:01 10° 6° (N) 2,223 6.1 -14.2°
Maximum altitude 19:49:56 90° 281° (W) 728 3.3 -14.9°
Drops below altitude 10° 19:54:49 10° 188° (S) 2,203 5.7 -15.6°
Sets 19:57:05 0° 188° (S) 3,120 6.5 -16.0°
